Weather History for KIML - December, 2010

Change the Weather History Date:

Wednesday, December 22, 2010

  Actual Average Record
Temperature  
Mean Temperature 30 °F 27 °F  
Max Temperature 39 °F 40 °F 66 °F (1933)
Min Temperature 20 °F 15 °F -34 °F (1989)
Degree Days  
Heating Degree Days 35 38  
Month to date heating degree days 673 796  
Cooling Degree Days 0 0  
Month to date cooling degree days 0 0  
Year to date cooling degree days 1172 963  
Moisture  
Dew Point 17 °F    
Average Humidity 63    
Maximum Humidity 81    
Minimum Humidity 44    
Precipitation  
Precipitation 0.00 in 0.01 in 0.17 in (1991)
Sea Level Pressure  
Sea Level Pressure 30.38 in    
Wind  
Wind Speed 9 mph (SE)    
Max Wind Speed 17 mph    
Max Gust Speed 22 mph    
Visibility 10 miles    
Events      
T = Trace of Precipitation, MM = Missing Value Source: NWS Daily Summary

Daily Weather History Graph

Daily Weather History Graph

Search for Another Location

Airport or City:

Trip Planner

Search our weather history database for the weather conditions in past years. The results will help you decide how hot, cold, wet, or windy it might be!

Date:

Astronomy

Dec. 22, 2010 Rise Set
Actual Time 7:06 AM MST 4:23 PM MST
Civil Twilight 6:36 AM MST 4:54 PM MST
Nautical Twilight 6:01 AM MST 5:28 PM MST
Astronomical Twilight 5:28 AM MST 6:01 PM MST
Moon 6:08 PM MST (12/22) 8:12 AM MST (12/22)
Length of Visible Light 10h 18m
Length of Day
9h 16m
Full, 97% of the Moon is Illuminated
Dec 22
Full
Dec 27
Last Quarter
Jan 4
New
Jan 12
First Quarter
Jan 19
Full

Hourly Weather History & Observations

Time (MST) Temp. Windchill Dew Point Humidity Pressure Visibility Wind Dir Wind Speed Gust Speed Precip Events Conditions
12:53 AM 28.9 °F - 19.9 °F 69% 30.35 in 10.0 mi Calm Calm - N/A   Mostly Cloudy
1:53 AM 28.9 °F - 19.0 °F 67% 30.36 in 10.0 mi Calm Calm - N/A   Overcast
2:53 AM 28.0 °F 24.2 °F 19.0 °F 69% 30.36 in 10.0 mi East 3.5 mph - N/A   Overcast
3:53 AM 28.0 °F - 19.9 °F 72% 30.38 in 10.0 mi Calm Calm - N/A   Overcast
4:53 AM 27.0 °F 23.0 °F 19.9 °F 75% 30.40 in 10.0 mi SSW 3.5 mph - N/A   Overcast
5:53 AM 24.1 °F 18.2 °F 18.0 °F 77% 30.41 in 10.0 mi ESE 4.6 mph - N/A   Mostly Cloudy
6:53 AM 21.0 °F 13.4 °F 16.0 °F 81% 30.44 in 10.0 mi SSE 5.8 mph - N/A   Scattered Clouds
7:53 AM 24.1 °F 17.0 °F 19.0 °F 81% 30.45 in 10.0 mi SE 5.8 mph - N/A   Clear
8:53 AM 27.0 °F 16.7 °F 17.1 °F 66% 30.46 in 10.0 mi SE 11.5 mph - N/A   Clear
9:53 AM 30.9 °F 22.8 °F 18.0 °F 59% 30.46 in 10.0 mi SE 9.2 mph - N/A   Clear
10:53 AM 34.0 °F 26.0 °F 18.0 °F 52% 30.43 in 10.0 mi SSE 10.4 mph - N/A   Clear
11:53 AM 35.1 °F 27.9 °F 18.0 °F 50% 30.40 in 10.0 mi SSE 9.2 mph - N/A   Clear
12:53 PM 36.0 °F 27.1 °F 19.0 °F 50% 30.36 in 10.0 mi SSE 13.8 mph - N/A   Clear
1:53 PM 37.9 °F 30.0 °F 18.0 °F 45% 30.35 in 10.0 mi SSE 12.7 mph - N/A   Clear
2:53 PM 37.9 °F 28.5 °F 18.0 °F 45% 30.33 in 10.0 mi SSE 17.3 mph - N/A   Clear
3:53 PM 34.0 °F 25.0 °F 17.1 °F 50% 30.34 in 10.0 mi SE 12.7 mph - N/A   Clear
4:53 PM 30.9 °F 22.2 °F 17.1 °F 57% 30.37 in 10.0 mi SE 10.4 mph - N/A   Overcast
5:53 PM 28.0 °F 17.0 °F 16.0 °F 61% 30.36 in 10.0 mi SE 13.8 mph - N/A   Scattered Clouds
6:53 PM 27.0 °F 15.2 °F 16.0 °F 63% 30.37 in 10.0 mi SE 15.0 mph - N/A   Overcast
7:53 PM 26.1 °F 14.0 °F 15.1 °F 63% 30.36 in 10.0 mi SE 15.0 mph - N/A   Overcast
8:53 PM 24.1 °F 13.1 °F 15.1 °F 69% 30.35 in 10.0 mi SE 11.5 mph - N/A   Mostly Cloudy
9:53 PM 21.9 °F 9.8 °F 14.0 °F 72% 30.33 in 10.0 mi SE 12.7 mph - N/A   Clear
10:53 PM 21.0 °F 9.3 °F 14.0 °F 74% 30.31 in 10.0 mi SE 11.5 mph - N/A   Clear
11:53 PM 21.9 °F 8.7 °F 14.0 °F 72% 30.29 in 10.0 mi SE 15.0 mph - N/A   Mostly Cloudy